Regional Weather Roundup
Issued by NWS

Home | Current Version | Previous Version | Text Only | Print | Product List | Glossary Off
Versions: 1 2 3 4 5 6 7 8 9 10 11 12 13 14 15 16 17 18 19 20 21 22 23 24 25 26 27 28 29 30 31 32 33 34 35 36 37 38 39 40 41 42 43 44 45 46 47 48 49

000
ASUS45 KBOU 241307
RWRCO

WEATHER ROUNDUP FOR COLORADO
NATIONAL WEATHER SERVICE DENVER/BOULDER CO
700 AM MDT THU JUL 24 2014

NOTE: "FAIR" INDICATES FEW OR NO CLOUDS BELOW 12000 FEET WITH NO
SIGNIFICANT WEATHER AND/OR OBSTRUCTIONS TO VISIBILITY.

COZ001>005-013-030-031-241400-
...NORTHWEST COLORADO...

CITY           SKY/WX    TMP DP  RH WIND       PRES   REMARKS
CRAIG          PTCLDY    55  50  83 SE3       30.27R
HAYDEN         PTCLDY    64  43  45 SE8       30.29S
MEEKER         MOCLDY    64  45  49 NE3       30.29R
MOUNT WERNER   NOT AVBL
STEAMBOAT SPGS MOSUNNY   55  45  67 CALM      30.32R
WALDEN         PTSUNNY   54  39  58 E9        30.40F
$$

COZ006>008-011-241400-
...WEST CENTRAL VALLEYS...

CITY           SKY/WX    TMP DP  RH WIND       PRES   REMARKS
GRAND JUNCTION MOCLDY    79  49  34 S15       30.18R
MONTROSE       TSTM      65  58  78 SE8       30.31S
EAGLE          MOCLDY    59  52  77 CALM      30.38R
RIFLE          PTCLDY    68  45  43 S3        30.25R
DELTA          CLOUDY    75  52  44 NE9       30.28R
NUCLA          MOCLDY    72  50  46 S6        30.34R
$$

COZ017>023-064>068-241400-
...SOUTHWEST COLORADO...

CITY           SKY/WX    TMP DP  RH WIND       PRES   REMARKS
DURANGO        CLEAR     58  51  78 N3        30.41R
CORTEZ         CLEAR     69  50  50 CALM      30.31R
PAGOSA SPRINGS CLEAR     56  55  94 CALM      30.50R
TELLURIDE      CLOUDY    64  41  42 E10G17    30.54R
WOLF CREEK PAS NOT AVBL
$$

COZ009-010-012-014-032>034-037-058>063-241400-
...CENTRAL COLORADO...

CITY           SKY/WX    TMP DP  RH WIND       PRES   REMARKS
ASPEN          MOCLDY    64  47  53 VRB6      30.43R
BUENA VISTA    MOSUNNY   56  46  68 CALM      30.46R
COPPER MTN     MOSUNNY   55  37  50 S10G20    30.76R
BERTHOUD PASS  FAIR      45  32  61 NW13      30.79R
COTTONWOOD PAS MOSUNNY   63  37  39 NW7G20    30.59R
GUNNISON       MOCLDY    59  45  58 N5        30.48S
KREMMLING      MOSUNNY   52  41  66 E3        30.42S
LEADVILLE      CLOUDY    53  44  71 E5        30.58F
MONARCH PASS   MOCLDY    48  37  66 W29       30.84S
SALIDA         MOSUNNY  N/A N/A N/A N7        30.49S
SUNLIGHT       PTCLDY    54  43  66 CALM      30.67R
WILKERSON PASS MOSUNNY   50  41  71 SW12G17   30.69S
$$

COZ069>075-241400-
...SAN LUIS VALLEY/SANGRE DE CRISTO MOUNTAINS...

CITY           SKY/WX    TMP DP  RH WIND       PRES   REMARKS
ALAMOSA        CLEAR     56  49  77 S3        30.46R
LA VETA PASS   SUNNY     54  43  66 SW14G29   30.60S
SAGUACHE       PTCLDY    55  45  67 CALM      30.50R
$$

COZ035-036-038>040-241400-
...NORTHERN COLORADO FRONT RANGE...

CITY           SKY/WX    TMP DP  RH WIND       PRES   REMARKS
DENVER INTL AP MOSUNNY   72  48  42 S6        30.14S
DMNS CITY PARK   N/A     69  54  59 N2        30.14R
AURORA         MOSUNNY   69  50  51 S12       30.16F
FRONT RANGE AP NOT AVBL
ERIE MUNI ARPT MOSUNNY   63  54  73 CALM      30.13S
BOULDER MUN AP MOSUNNY   68  52  56 CALM      30.13S
CENTENNIAL     MOSUNNY   71  48  43 S9        30.18S
BROOMFIELD     PTSUNNY   72  50  46 SW3       30.16S
FORT COLLINS   MOSUNNY   63  54  72 S3        30.13R
LONGMONT       MOSUNNY   64  53  67 CALM      30.13F
$$

COZ041-046-047-076>085-087-088-241400-
...PIKES PEAK/PALMER DIVIDE AND SOUTHERN FOOTHILLS...

CITY           SKY/WX    TMP DP  RH WIND       PRES   REMARKS
COLO. SPRINGS  MOSUNNY   65  57  75 NE9       30.25S
A. F. ACADEMY  MOSUNNY   62  49  60 VRB1      30.27S
ELLICOTT       SUNNY     66  52  60 E3        30.24F
FALCON         SUNNY     63  57  81 E5        30.30F
FORT CARSON    SUNNY     64  53  67 N6        30.22S
LIMON          MOSUNNY   62  56  80 SE7       30.19S
MONUMENT HILL  SUNNY     64  45  48 S7        30.29S
TRINIDAD       SUNNY     68  50  52 W12       30.26S
$$

COZ042>045-048>051-090-091-241400-
...NORTHEAST COLORADO...

CITY           SKY/WX    TMP DP  RH WIND       PRES   REMARKS
GREELEY ARPT   MOSUNNY   61  52  72 W7        30.10S
AKRON          SUNNY     73  51  46 S10       30.10S
BURLINGTON     SUNNY     68  61  78 S9        30.12S
WRAY             N/A     72  64  77 S12       30.05F
STERLING       SUNNY     70  64  83 SW6       30.04S
HOLYOKE        SUNNY     72  68  88 S7        30.04F FOG
FORT MORGAN    SUNNY     70  60  69 S6        30.09S
$$

COZ086-089-092>099-241400-
...SOUTHEAST COLORADO...

CITY           SKY/WX    TMP DP  RH WIND       PRES   REMARKS
PUEBLO         SUNNY     67  55  65 CALM      30.15S
LA JUNTA       SUNNY     72  53  51 S10       30.13S
LAMAR          SUNNY     70  56  61 W7        30.10R
SPRINGFIELD      N/A     70  54  56 SW9       30.18S
$$


USA.gov is the U.S. government's official web portal to all federal, state and local government web resources and services.